Location: Aytr�
(46.1357°N, 1.1145°W)
Time: 05:50:21
(UTC+00:00)

Cosmos 1980 Rocket - Pass Details

Date: 03 March 2021
Orbit: 828 x 851 km, 71.0° (Epoch: 18 April)

Event Time Altitude Azimuth Distance (km) Brightness Sun altitude
Rises 18:52:48 0° 242° (WSW) 3,391 6.5 -11.0°
Reaches altitude 10° 18:55:38 10° 255° (WSW) 2,464 5.9 -11.5°
Maximum altitude 19:00:20 26° 311° (NW) 1,602 4.3 -12.3°
Drops below altitude 10° 19:05:05 10° 8° (N) 2,485 4.6 -13.1°
Sets 19:07:58 0° 21° (NNE) 3,426 5.2 -13.6°
